Flag for Honduras Weather past 2 weeks in Tegucigalpa, Honduras

Now
66 °F

Passing clouds.


Feels Like: 66 °F
Forecast: 66 / 86 °F
Wind: No wind

Location: Tegucigalpa Airport

Current Time: Aug 2, 2015 at 2:48:40 AM

Latest Report: Aug 2, 2015 at 2:00 AM


Visibility: N/A

Pressure: 30.07 "Hg (26.58 "Hg at 1054m altitude)

Humidity: 100%

Dew point: 66 °F

Location of TegucigalpaLocation

Historic Weather in Tegucigalpa — Graph

°F

Tegucigalpa temperature yesterday

Maximum temperature yesterday: 84 °F (at 1:00 PM)
Minimum temperature yesterday: 66 °F (at 2:00 AM)
Average temperature yesterday: 74 °F

Past Weeks' High & Low Weather Summary

 TemperatureHumidityPressure
High88 °F (Jul 18, 2:00 PM)100% (Jul 18, 6:00 AM)30.18 "Hg (Jul 18, 6:00 AM)
Low63 °F (Jul 20, 5:00 AM)35% (Jul 18, 2:00 PM)29.89 "Hg (Jul 23, 10:00 PM)
Average74 °F72%30.10 "Hg
* Reported Jul 18 1:00 AM — Aug 2 1:00 AM, Tegucigalpa, Weather by CustomWeather, © 2015

Note: Actual official high and low records may vary slightly from our data, if they occured in-between our weather recording intervals... More about our weather records

Advertising

Tegucigalpa weather history for previous 24 hours

 ConditionsComfort  
Time TempWeatherWind HumidityBarometerVisibility
1:00 AM
Sun, Aug 2
68 °FPassing clouds.No wind94%30.07 "HgN/A
12:00 AM68 °FPassing clouds.No wind94%30.09 "HgN/A
11:00 PM
Sat, Aug 1
70 °FPassing clouds.No wind88%30.09 "HgN/A
10:00 PM72 °FPartly cloudy.No wind78%30.09 "HgN/A
9:00 PM72 °FPassing clouds.No wind78%30.09 "HgN/A
8:00 PM73 °FPassing clouds.5 mph74%30.07 "HgN/A
7:00 PM75 °FPartly cloudy.5 mph74%30.07 "HgN/A
6:00 PM75 °FScattered clouds.9 mph74%30.04 "HgN/A
5:00 PM77 °FBroken clouds.7 mph65%30.04 "HgN/A
4:00 PM79 °FPartly sunny.7 mph58%30.04 "HgN/A
3:00 PM81 °FScattered clouds.12 mph62%30.04 "HgN/A
2:00 PM81 °FPartly sunny.12 mph54%30.04 "HgN/A
1:00 PM84 °FPartly sunny.9 mph55%30.07 "HgN/A
12:00 PM81 °FPartly sunny.5 mph58%30.09 "HgN/A
11:00 AM81 °FPartly sunny.6 mph54%30.09 "HgN/A
10:00 AM79 °FPartly sunny.7 mph61%30.09 "HgN/A
9:00 AM77 °FScattered clouds.No wind65%30.12 "HgN/A
8:00 AM75 °FScattered clouds.6 mph74%30.09 "HgN/A
7:00 AM70 °FScattered clouds.7 mph83%30.09 "HgN/A
6:00 AM68 °FBroken clouds.9 mph88%30.09 "HgN/A
5:00 AM68 °FPartly cloudy.5 mph88%30.09 "HgN/A
4:00 AM66 °FPassing clouds.No wind88%30.07 "HgN/A
3:00 AM68 °FPassing clouds.No wind83%30.09 "HgN/A
2:00 AM66 °FPassing clouds.No wind83%30.12 "HgN/A
Weather by CustomWeather, © 2015

See weather overviewHow to use our weather pages